Погода в Аруа

Уганда     3°01′18″N   30°54′22″E
темп.,
°C
ветер,
м/с
пор.,
м/с
влажн.,
%
обл.,
%
осадки,
мм/ч
давл.,
гПа
погр.,
м
28 февраля, вс
вс2800:00+26сз122649 0.0 101024
03:00+24сз223255 0.0 100826
06:00+22зсз12360 0.0 100923
09:00+29св23280 0.0 1011386
12:00+34всв57200 0.0 10093156
15:00+35в66187 0.0 10053323
18:00+34в55191 0.0 10043024
21:00+29ссв252832 0.0 1007210
1 марта, пн
пн100:00+25ссз243745 0.0 100977
03:00+25св153764 0.0 1008264
06:00+23юз114355 0.0 100824
09:00+28юв343335 0.0 1010424
12:00+35в562024 0.0 10082920
15:00+34всв442145 0.0 10032955
18:00+35всв241911 0.0 10023313
21:00+29ссз492833 0.0 1006214
2 марта, вт
вт200:00+28с273184 0.0 1008318
03:00+26всв013588 0.0 100724
06:00+25ююз343782 0.0 100892
09:00+26вюв3103588 0.0 1010500
12:00+33всв572394 0.0 10082038
15:00+37всв451679 0.0 10043527
18:00+35всв4516100 0.0 10022137
21:00+28зсз122489 0.0 100538
3 марта, ср
ср300:00+28св2526100 0.0 1007164
03:00+26ююв253095 0.0 1007156
06:00+25ююв253694 0.0 1008145
09:00+26юв493289 0.0 1010357
12:00+34вюв562179 0.0 10092406
15:00+36в451790 0.0 10043444
18:00+33сз232198 0.0 1004175
21:00+28ююв112899 0.0 100628
4 марта, чт
чт400:00+26ссз123267 0.0 100824
03:00+25ююз013371 0.0 100826
06:00+23ю123858 0.0 100838
09:00+28вюв363230 0.0 1009512
12:00+34в55202 0.0 10082082
15:00+35св341732 0.0 10033470
18:00+35с451872 0.0 10033250
21:00+27ссз363063 0.0 1005131